Location: Eaton Estates
(41.3089°N, 82.0057°W)
Time: 16:55:39
(UTC+00:00)

Tiangong - Visible Passes

Search period start: 08 December 2022 00:00
Search period end: 18 December 2022 00:00
Orbit: 386 x 392 km, 41.5° (Epoch: 08 December)

Date Brightness Start Highest point End Pass type
(mag) Time Alt. Az. Time Alt. Az. Time Alt. Az.
08 Dec 0.9 00:30:43 10° W 00:31:42 17° W 00:31:42 17° W visible
08 Dec -1.6 23:32:27 10° W 23:35:35 54° SSW 23:36:30 37° SE visible
09 Dec -1.9 22:34:12 10° W 22:37:22 74° SSW 22:40:33 10° ESE visible
10 Dec 0.1 00:11:28 10° W 00:13:45 22° SW 00:13:45 22° SW visible
10 Dec -0.6 23:12:57 10° W 23:15:53 34° SSW 23:18:48 10° SE visible
11 Dec 0.9 23:52:32 10° WSW 23:54:07 13° SSW 23:55:41 10° S visible
12 Dec 0.5 22:53:28 10° W 22:55:57 21° SSW 22:58:26 10° SSE visible
14 Dec 1.2 22:34:27 10° WSW 22:35:46 12° SW 22:37:05 10° S visible
